DIWATA-2B (43678 NORAD) Tracking and Keplerian Element Data

This shows tracking and keplerian element data for the satellite.

Feedback or suggestion? Click here.




ElementValue
Catalog43678
NameDIWATA-2B
Epoch Orbit22121
Epoch Day325.08240841
Epoch Year2022
RAAN100.4273
Inclination97.9922
Eccentricity0.001091
Argument of Perigee124.4308
Mean Anonmoly235.7934
Mean Motion14.92498941
Decay Rate1.413E-05
L11 43678U 18084H 22325.08240841 .00001413 00000+0 14332-3 0 9994
L22 43678 97.9922 100.4273 0010910 124.4308 235.7934 14.92498941221210



Live tracking and technical data element details for DIWATA-2B (NORAD 43678). DIWATA-2B can be tracked NOW for your location showing map with azimuth and elevation plus other details from your city location.







IsCatalogInMostPopularTable: catalog: 43678, numindb: 525
Update: records affected: 1



GetName: 43678 DIWATA-2B

Hit Count: updated at: Fri, 02 Dec 2022 12:28:16 GMT